Date String (YYYY-MM-DD hh:mm:ss) UTC,Instrument flags,Ambient pressure (hPa),Sample flow (lpm),Bypass flow (lpm),Sample temperature (°C),Ambient temperature (°C),ASC tube jacket temperature (°C),LED temperature (°C),Box temperature (°C),Sample RH (%),Span deviation,Mass concentration (μg/m³),Mass concentration (μg/m³),Mass concentration (μg/m³)
DateTimeUTC,F1_M11,P_M11,Q1_M11,Q2_M11,T1_M11,T2_M11,T3_M11,T4_M11,T5_M11,U1_M11,ZSPAN_M11,X0_M11,X2_M11,X1_M11
2021-10-05 15:00:00,,0832.8,5.00,0.00,30.2,29.4,00.0,39.3,32.0,12.0,0000.9,0014.74,0004.82,0003.65
2021-10-05 15:01:00,,0832.7,5.00,0.00,30.2,29.4,00.0,39.3,32.0,12.0,0000.7,0013.14,0004.83,0003.65
2021-10-05 15:02:00,,0832.7,5.00,0.00,30.2,29.5,00.0,39.3,32.0,12.1,0000.3,0012.46,0004.80,0003.64
2021-10-05 15:03:00,,0832.8,5.00,0.00,30.2,29.5,00.0,39.3,32.0,12.2,-000.0,0013.62,0004.77,0003.64
2021-10-05 15:04:00,,0832.7,5.00,0.00,30.3,29.5,00.0,39.3,32.0,12.3,0000.6,0013.67,0004.75,0003.63
2021-10-05 15:05:00,,0832.8,5.01,0.00,30.3,29.5,00.0,39.3,32.0,12.3,0000.5,0013.33,0004.73,0003.65
2021-10-05 15:06:00,,0832.8,5.00,0.00,30.3,29.5,00.0,39.3,32.0,12.6,0001.0,0012.68,0004.72,0003.67
2021-10-05 15:07:00,,0832.7,5.00,0.00,30.3,29.5,00.0,39.3,32.0,12.7,0000.2,0012.76,0004.72,0003.67
2021-10-05 15:08:00,,0832.7,5.01,0.00,30.3,29.5,00.0,39.3,32.1,12.7,0000.4,0012.54,0004.70,0003.69
2021-10-05 15:09:00,,0832.7,4.99,0.00,30.3,29.6,00.0,39.3,32.1,12.7,0001.4,0013.37,0004.73,0003.69
2021-10-05 15:10:00,,0832.8,5.00,0.00,30.3,29.6,00.0,39.4,32.1,12.9,0002.1,0013.52,0004.79,0003.71
2021-10-05 15:11:00,,0832.8,5.00,0.00,30.3,29.6,00.0,39.4,32.1,12.8,0002.1,0013.99,0004.79,0003.71
2021-10-05 15:12:00,,0832.7,5.00,0.00,30.3,29.6,00.0,39.4,32.1,13.0,0001.8,0015.99,0004.75,0003.71
2021-10-05 15:13:00,,0832.8,5.01,0.00,30.4,29.6,00.0,39.4,32.1,13.1,0002.3,0016.67,0004.71,0003.71
2021-10-05 15:14:00,,0832.7,4.99,0.00,30.4,29.6,00.0,39.4,32.1,13.3,0002.4,0015.87,0004.71,0003.72
2021-10-05 15:15:00,,0832.8,5.01,0.00,30.4,29.7,00.0,39.4,32.1,13.3,0001.8,0017.63,0004.74,0003.73
2021-10-05 15:16:00,,0832.8,4.98,0.00,30.4,29.7,00.0,39.4,32.2,13.4,0002.2,0017.76,0004.77,0003.72
2021-10-05 15:17:00,,0832.8,5.01,0.00,30.4,29.7,00.0,39.5,32.2,13.3,0001.6,0017.78,0004.81,0003.72
2021-10-05 15:18:00,,0832.7,5.00,0.00,30.5,29.7,00.0,39.5,32.2,13.2,0002.3,0017.98,0004.82,0003.72
2021-10-05 15:19:00,,0832.7,4.99,0.00,30.5,29.7,00.0,39.5,32.2,13.3,0002.5,0017.60,0004.81,0003.71
2021-10-05 15:20:00,,0832.7,5.01,0.00,30.5,29.8,00.0,39.5,32.3,13.1,0002.6,0017.39,0004.84,0003.71
2021-10-05 15:21:00,,0832.8,5.00,0.00,30.5,29.8,00.0,39.5,32.3,12.9,0002.6,0017.61,0004.78,0003.71
2021-10-05 15:22:00,,0832.7,5.00,0.00,30.5,29.8,00.0,39.5,32.3,12.9,0002.4,0017.16,0004.80,0003.72
2021-10-05 15:23:00,,0832.8,5.01,0.00,30.5,29.8,00.0,39.5,32.3,12.6,0002.5,0014.86,0004.78,0003.72
2021-10-05 15:24:00,,0832.8,5.00,0.00,30.6,29.8,00.0,39.6,32.3,12.8,0002.4,0014.39,0004.83,0003.73
2021-10-05 15:25:00,,0832.7,4.99,0.00,30.6,29.8,00.0,39.6,32.3,13.2,0002.3,0014.22,0004.85,0003.73
2021-10-05 15:26:00,,0832.7,5.00,0.00,30.6,29.4,00.0,39.6,32.2,13.3,0002.6,0013.57,0004.91,0003.74
2021-10-05 15:27:00,,0832.8,5.00,0.00,30.5,27.5,00.0,39.6,31.7,13.1,0002.1,0014.30,0004.96,0003.76
2021-10-05 15:28:00,,0832.7,5.01,0.00,30.3,27.0,00.0,39.5,31.6,12.6,0002.5,0014.35,0005.02,0003.77
2021-10-05 15:29:00,,0832.8,5.01,0.00,30.3,27.3,00.0,39.5,31.7,12.5,0001.8,0014.09,0005.01,0003.77
2021-10-05 15:30:00,,0832.7,4.99,0.00,30.2,27.7,00.0,39.4,31.7,12.6,0001.5,0014.26,0005.07,0003.77
2021-10-05 15:31:00,,0832.8,5.01,0.00,30.2,28.0,00.0,39.4,31.7,12.8,0001.4,0013.79,0005.05,0003.76
2021-10-05 15:32:00,,0832.7,5.00,0.00,30.2,28.3,00.0,39.4,31.7,13.0,0000.8,0013.66,0005.03,0003.75
2021-10-05 15:33:00,,0832.8,5.01,0.00,30.2,28.5,00.0,39.3,31.8,13.1,0000.0,0013.44,0004.97,0003.74
2021-10-05 15:34:00,,0832.8,5.00,0.00,30.2,28.7,00.0,39.3,31.8,13.1,0000.0,0013.52,0004.98,0003.73
2021-10-05 15:35:00,,0832.7,4.99,0.00,30.2,28.9,00.0,39.3,31.9,13.2,0000.0,0013.42,0004.96,0003.74
2021-10-05 15:36:00,,0832.7,5.00,0.00,30.2,29.0,00.0,39.3,31.9,13.2,0000.0,0013.19,0004.92,0003.73
2021-10-05 15:37:00,,0832.7,5.00,0.00,30.2,29.1,00.0,39.3,31.9,13.3,0000.0,0012.84,0004.83,0003.71
2021-10-05 15:38:00,,0832.8,5.00,0.00,30.2,29.2,00.0,39.3,32.0,12.7,0000.0,0012.36,0004.75,0003.67
2021-10-05 15:39:00,,0832.7,5.01,0.00,30.3,29.3,00.0,39.3,32.0,12.4,0000.0,0012.77,0004.70,0003.65
2021-10-05 15:40:00,,0832.8,5.00,0.00,30.3,29.3,00.0,39.3,32.0,12.4,0001.3,0012.90,0004.68,0003.63
2021-10-05 15:41:00,,0832.7,4.99,0.00,30.3,29.3,00.0,39.4,32.1,12.8,0001.4,0013.10,0004.59,0003.62
2021-10-05 15:42:00,,0832.7,5.00,0.00,30.3,29.4,00.0,39.4,32.1,12.8,0001.8,0014.68,0004.61,0003.62
2021-10-05 15:43:00,,0832.7,5.00,0.00,30.3,29.4,00.0,39.4,32.1,12.9,0001.4,0014.31,0004.59,0003.63
2021-10-05 15:44:00,,0832.7,5.01,0.00,30.3,29.4,00.0,39.4,32.1,12.8,0001.5,0014.60,0004.64,0003.63
2021-10-05 15:45:00,,0832.7,5.00,0.00,30.4,29.5,00.0,39.4,32.1,12.7,0001.4,0015.13,0004.65,0003.64
2021-10-05 15:46:00,,0832.8,5.00,0.00,30.4,29.5,00.0,39.4,32.2,13.1,0001.3,0014.83,0004.63,0003.63
2021-10-05 15:47:00,,0832.7,4.99,0.00,30.4,29.5,00.0,39.4,32.2,13.0,0001.3,0014.86,0004.63,0003.64
2021-10-05 15:48:00,,0832.7,4.99,0.00,30.4,29.6,00.0,39.4,32.2,13.1,0001.2,0014.28,0004.60,0003.63
2021-10-05 15:49:00,,0832.7,5.01,0.00,30.4,29.6,00.0,39.4,32.2,13.1,0001.6,0013.90,0004.61,0003.65
2021-10-05 15:50:00,,0832.7,5.01,0.00,30.4,29.5,00.0,39.5,32.2,12.9,0001.4,0013.50,0004.64,0003.66
2021-10-05 15:51:00,,0832.8,4.99,0.00,30.4,28.2,00.0,39.5,31.9,12.8,0001.2,0012.90,0004.62,0003.67
2021-10-05 15:52:00,,0832.7,5.00,0.00,30.3,26.6,00.0,39.4,31.4,13.1,0001.1,0012.72,0004.63,0003.66
2021-10-05 15:53:00,,0832.8,4.99,0.00,30.2,26.8,00.0,39.4,31.5,13.2,0001.3,0011.19,0004.60,0003.66
2021-10-05 15:54:00,,0832.8,5.00,0.00,30.1,27.2,00.0,39.3,31.5,13.4,0001.7,0011.10,0004.59,0003.65
2021-10-05 15:55:00,,0832.7,5.00,0.00,30.0,27.6,00.0,39.3,31.6,13.1,0001.6,0011.28,0004.60,0003.66
2021-10-05 15:56:00,,0832.7,5.01,0.00,30.0,27.9,00.0,39.2,31.6,13.0,0001.6,0010.81,0004.62,0003.64
2021-10-05 15:57:00,,0832.8,4.99,0.00,30.0,28.2,00.0,39.2,31.7,13.0,0002.0,0011.24,0004.66,0003.64
2021-10-05 15:58:00,,0832.8,5.01,0.00,30.0,28.4,00.0,39.2,31.7,13.0,0001.5,0012.06,0004.70,0003.64
2021-10-05 15:59:00,,0832.8,5.00,0.00,30.0,28.6,00.0,39.2,31.8,12.8,0002.0,0012.44,0004.73,0003.64
